Rolla, ND

3:07 PM CST on November 18, 2019 (GMT -0600)
Rolla

Weather History for K06D - October, 2019

Change the Weather History Date:

Wednesday, October 23, 2019

  Actual Average (WUND) Record (WUND)
Temperature  
Mean Temperature 30 °F -  
Max Temperature 37 °F - - (-1)
Min Temperature 24 °F - - (-1)
Degree Days  
Heating Degree Days 34    
Moisture  
Dew Point 22 °F    
Average Humidity 71    
Maximum Humidity 86    
Minimum Humidity 45    
Precipitation  
Precipitation 0.00 in - - ()
Sea Level Pressure  
Sea Level Pressure 30.00 in    
Wind  
Wind Speed 12 mph (NNW)    
Max Wind Speed 22 mph    
Max Gust Speed 29 mph    
Visibility 10 miles    
Events      
Averages and records for this station are not official NWS values.
T = Trace of Precipitation, MM = Missing Value Source: NWS Daily Summary

Daily Weather History Graph

Daily Weather History Graph

Search for Another Location

Airport or City:

Astronomy

Oct. 23, 2019 Rise Set
Actual Time 8:10 AM CDT 6:33 PM CDT
Civil Twilight 7:38 AM CDT 7:06 PM CDT
Nautical Twilight 7:01 AM CDT 7:42 PM CDT
Astronomical Twilight 6:25 AM CDT 8:19 PM CDT
Moon 1:54 AM CDT (10/23) 4:58 PM CDT (10/23)
Length of Visible Light 11h 27m
Length of Day
10h 22m
Waning Crescent, 26% of the Moon is Illuminated
Oct 23
Waning Crescent
Oct 27
New
Nov 4
First Quarter
Nov 12
Full
Nov 19
Last Quarter

Hourly Weather History & Observations

Time (CDT) Temp. Windchill Dew Point Humidity Pressure Visibility Wind Dir Wind Speed Gust Speed Precip Events Conditions
12:15 AM 24.8 °F 15.3 °F 21.2 °F 86% 29.79 in 10.0 mi NNW 9.2 mph - N/A   Clear
12:35 AM 24.8 °F 15.3 °F 21.2 °F 86% 29.79 in 10.0 mi NNW 9.2 mph - N/A   Clear
12:55 AM 26.6 °F 16.2 °F 23.0 °F 86% 29.78 in 10.0 mi North 11.5 mph - N/A   Clear
1:15 AM 26.6 °F 15.7 °F 23.0 °F 86% 29.79 in 10.0 mi North 12.7 mph - N/A   Clear
1:35 AM 26.6 °F 16.2 °F 23.0 °F 86% 29.80 in 10.0 mi North 11.5 mph - N/A   Clear
1:55 AM 26.6 °F 16.8 °F 23.0 °F 86% 29.80 in 10.0 mi NNW 10.4 mph - N/A   Clear
2:35 AM 26.6 °F 16.2 °F 23.0 °F 86% 29.81 in 10.0 mi NNW 11.5 mph - N/A   Clear
2:55 AM 26.6 °F 16.2 °F 23.0 °F 86% 29.82 in 10.0 mi NNW 11.5 mph - N/A   Clear
3:15 AM 26.6 °F 15.7 °F 23.0 °F 86% 29.82 in 10.0 mi NNW 12.7 mph - N/A   Clear
3:35 AM 26.6 °F 15.2 °F 23.0 °F 86% 29.82 in 10.0 mi NNW 13.8 mph - N/A   Clear
3:55 AM 26.6 °F 15.2 °F 23.0 °F 86% 29.83 in 10.0 mi NNW 13.8 mph - N/A   Clear
4:15 AM 26.6 °F 15.7 °F 23.0 °F 86% 29.84 in 10.0 mi NNW 12.7 mph - N/A   Clear
4:35 AM 26.6 °F 16.8 °F 23.0 °F 86% 29.85 in 10.0 mi NNW 10.4 mph 16.1 mph N/A   Scattered Clouds
4:55 AM 26.6 °F 16.2 °F 23.0 °F 86% 29.86 in 10.0 mi NNW 11.5 mph - N/A   Overcast
5:15 AM 26.6 °F 16.2 °F 23.0 °F 86% 29.86 in 10.0 mi NNW 11.5 mph - N/A   Overcast
5:35 AM 26.6 °F 16.2 °F 23.0 °F 86% 29.87 in 10.0 mi NNW 11.5 mph - N/A   Overcast
5:55 AM 26.6 °F 15.7 °F 23.0 °F 86% 29.87 in 10.0 mi NNW 12.7 mph - N/A   Overcast
6:15 AM 26.6 °F 15.2 °F 23.0 °F 86% 29.88 in 10.0 mi NNW 13.8 mph - N/A   Overcast
6:35 AM 26.6 °F 15.7 °F 21.2 °F 80% 29.89 in 10.0 mi NNW 12.7 mph - N/A   Overcast
6:55 AM 26.6 °F 15.7 °F 21.2 °F 80% 29.90 in 10.0 mi NNW 12.7 mph - N/A   Mostly Cloudy
7:15 AM 24.8 °F 13.4 °F 21.2 °F 86% 29.90 in 10.0 mi NNW 12.7 mph 18.4 mph N/A   Mostly Cloudy
7:35 AM 24.8 °F 12.4 °F 21.2 °F 86% 29.91 in 10.0 mi NNW 15.0 mph - N/A   Partly Cloudy
7:55 AM 24.8 °F 13.4 °F 19.4 °F 80% 29.91 in 10.0 mi NNW 12.7 mph - N/A   Clear
8:15 AM 24.8 °F 12.9 °F 21.2 °F 86% 29.92 in 10.0 mi NNW 13.8 mph - N/A   Clear
8:35 AM 24.8 °F 12.9 °F 21.2 °F 86% 29.93 in 10.0 mi NNW 13.8 mph - N/A   Clear
8:55 AM 26.6 °F 14.3 °F 21.2 °F 80% 29.94 in 10.0 mi NNW 16.1 mph 21.9 mph N/A   Clear
9:15 AM 26.6 °F 14.7 °F 21.2 °F 80% 29.95 in 10.0 mi NNW 15.0 mph 20.7 mph N/A   Clear
9:35 AM 28.4 °F 15.4 °F 21.2 °F 74% 29.96 in 10.0 mi NNW 19.6 mph - N/A   Clear
9:55 AM 30.2 °F 17.8 °F 23.0 °F 75% 29.97 in 10.0 mi NNW 19.6 mph - N/A   Clear
10:15 AM 30.2 °F 18.5 °F 23.0 °F 75% 29.98 in 10.0 mi NNW 17.3 mph 25.3 mph N/A   Clear
10:35 AM 32.0 °F 20.5 °F 23.0 °F 69% 29.99 in 10.0 mi NNW 18.4 mph 25.3 mph N/A   Clear
10:55 AM 32.0 °F 20.8 °F 23.0 °F 69% 30.00 in 10.0 mi NNW 17.3 mph 26.5 mph N/A   Clear
11:35 AM 33.8 °F 23.5 °F 21.2 °F 60% 30.01 in 10.0 mi NNW 16.1 mph 27.6 mph N/A   Clear
11:55 AM 33.8 °F 22.8 °F 21.2 °F 60% 30.02 in 10.0 mi North 18.4 mph 27.6 mph N/A   Clear
12:15 PM 35.6 °F 25.2 °F 21.2 °F 56% 30.02 in 10.0 mi NNW 18.4 mph 24.2 mph N/A   Clear
12:35 PM 35.6 °F 24.2 °F 19.4 °F 52% 30.03 in 10.0 mi North 21.9 mph - N/A   Clear
12:55 PM 35.6 °F 25.5 °F 19.4 °F 52% 30.04 in 10.0 mi NNW 17.3 mph 26.5 mph N/A   Partly Cloudy
1:15 PM 37.4 °F 27.5 °F 19.4 °F 48% 30.04 in 10.0 mi NNW 18.4 mph 27.6 mph N/A   Partly Cloudy
1:35 PM 37.4 °F 27.5 °F 19.4 °F 48% 30.04 in 10.0 mi North 18.4 mph 26.5 mph N/A   Scattered Clouds
1:55 PM 37.4 °F 27.2 °F 19.4 °F 48% 30.05 in 10.0 mi North 19.6 mph 28.8 mph N/A   Mostly Cloudy
2:15 PM 37.4 °F 27.2 °F 17.6 °F 45% 30.04 in 10.0 mi NNW 19.6 mph - N/A   Mostly Cloudy
2:35 PM 37.4 °F 27.5 °F 19.4 °F 48% 30.05 in 10.0 mi NNW 18.4 mph 24.2 mph N/A   Overcast
2:55 PM 37.4 °F 27.2 °F 19.4 °F 48% 30.05 in 10.0 mi NNW 19.6 mph - N/A   Overcast
3:15 PM 37.4 °F 27.5 °F 17.6 °F 45% 30.05 in 10.0 mi NNW 18.4 mph - N/A   Overcast
3:35 PM 37.4 °F 28.2 °F 19.4 °F 48% 30.06 in 10.0 mi NNW 16.1 mph - N/A   Overcast
3:55 PM 37.4 °F 28.9 °F 19.4 °F 48% 30.06 in 10.0 mi NNW 13.8 mph - N/A   Overcast
4:15 PM 37.4 °F 29.8 °F 19.4 °F 48% 30.07 in 10.0 mi NNW 11.5 mph 17.3 mph N/A   Overcast
4:35 PM 37.4 °F 29.8 °F 19.4 °F 48% 30.07 in 10.0 mi NNW 11.5 mph - N/A   Overcast
4:55 PM 37.4 °F 30.3 °F 19.4 °F 48% 30.08 in 10.0 mi NNW 10.4 mph 17.3 mph N/A   Overcast
5:15 PM 37.4 °F 30.3 °F 21.2 °F 52% 30.08 in 10.0 mi NW 10.4 mph - N/A   Overcast
5:35 PM 37.4 °F 30.8 °F 21.2 °F 52% 30.09 in 10.0 mi NNW 9.2 mph - N/A   Overcast
5:55 PM 37.4 °F 32.1 °F 21.2 °F 52% 30.10 in 10.0 mi NNW 6.9 mph - N/A   Overcast
6:15 PM 35.6 °F 29.9 °F 23.0 °F 60% 30.11 in 10.0 mi NW 6.9 mph - N/A   Overcast
6:35 PM 35.6 °F 29.9 °F 23.0 °F 60% 30.11 in 10.0 mi NNW 6.9 mph - N/A   Overcast
6:55 PM 35.6 °F 29.9 °F 24.8 °F 65% 30.12 in 10.0 mi NW 6.9 mph - N/A   Overcast
7:15 PM 35.6 °F 28.6 °F 23.0 °F 60% 30.13 in 10.0 mi NNW 9.2 mph - N/A   Overcast
7:35 PM 33.8 °F 26.4 °F 23.0 °F 65% 30.14 in 10.0 mi NNW 9.2 mph - N/A   Overcast
7:55 PM 32.0 °F 23.6 °F 24.8 °F 75% 30.15 in 10.0 mi NW 10.4 mph - N/A   Mostly Cloudy
8:15 PM 32.0 °F 24.2 °F 23.0 °F 69% 30.16 in 10.0 mi NW 9.2 mph - N/A   Mostly Cloudy
8:35 PM 30.2 °F 21.9 °F 23.0 °F 75% 30.16 in 10.0 mi NW 9.2 mph - N/A   Partly Cloudy
8:55 PM 30.2 °F 21.9 °F 23.0 °F 75% 30.16 in 10.0 mi NW 9.2 mph - N/A   Clear
9:15 PM 30.2 °F 21.9 °F 23.0 °F 75% 30.17 in 10.0 mi NW 9.2 mph - N/A   Clear
9:35 PM 30.2 °F 21.3 °F 21.2 °F 69% 30.17 in 10.0 mi NNW 10.4 mph - N/A   Clear
9:55 PM 30.2 °F 22.6 °F 21.2 °F 69% 30.18 in 10.0 mi NW 8.1 mph - N/A   Clear
10:15 PM 28.4 °F 19.7 °F 21.2 °F 74% 30.18 in 10.0 mi NNW 9.2 mph - N/A   Clear
10:35 PM 26.6 °F 17.5 °F 21.2 °F 80% 30.19 in 10.0 mi North 9.2 mph - N/A   Clear
10:55 PM 24.8 °F 16.9 °F 21.2 °F 86% 30.20 in 10.0 mi NNW 6.9 mph - N/A   Clear
11:15 PM 24.8 °F 16.9 °F 21.2 °F 86% 30.21 in 10.0 mi NNW 6.9 mph - N/A   Clear
11:35 PM 24.8 °F 15.3 °F 21.2 °F 86% 30.21 in 10.0 mi NW 9.2 mph - N/A   Clear
11:55 PM 24.8 °F 16.1 °F 21.2 °F 86% 30.21 in 10.0 mi NW 8.1 mph - N/A   Clear